Regional Weather Roundup
Issued by NWS State College, PA

Home | Current Version | Previous Version | Graphics & Text | Print | Product List | Glossary Off
Versions: 1 2 3 4 5 6 7 8 9 10 11 12 13 14 15 16 17 18 19 20 21 22 23 24 25 26 27 28 29 30 31 32 33 34 35 36 37 38 39 40 41 42 43 44 45 46 47 48 49 50

000
ASUS41 KCTP 241503
RWRCTP

REGIONAL WEATHER ROUNDUP
NATIONAL WEATHER SERVICE STATE COLLEGE PA
1100 AM EDT SAT JUN 24 2017

Note: "fair" indicates few or no clouds below 12,000 feet with no
significant weather and/or obstructions to visibility.

* = STATION THAT DOES NOT REPORT PRECIPITATION /E.G. RAIN...SNOW...ETC/
    THUNDER OR FOG.

PAZ002>004-007>009-013>016-020>023-029>032-241600-
WESTERN PENNSYLVANIA

CITY           SKY/WX    TMP DP  RH WIND       PRES   REMARKS
ERIE           SUNNY     72  59  63 W12G17    29.83R
MEADVILLE      SUNNY     71  60  68 W10       29.86S
FRANKLIN*      MOSUNNY   73  57  56 W10G18    29.88R
NEW CASTLE     FAIR      73  57  57 SW10G16   29.89R
BEAVER COUNTY  SUNNY     72  59  64 W9        29.89S
BUTLER*        SUNNY     73  57  56 W8        29.89S
PITTSBURGH INT MOSUNNY   73  58  59 W8        29.90R
PITTSBURGH     MOSUNNY   73  56  54 W12G18    29.90R
INDIANA*       MOSUNNY   72  61  68 W13G18    29.92R
LATROBE        MOSUNNY   72  61  68 W9          N/A
WASHINGTON CO* SUNNY     72  61  68 SW10      29.94S
$$

PAZ004>006-010>012-017>019-024>028-033>037-041-042-045-046-049>053-241600-
CENTRAL PENNSYLVANIA

CITY           SKY/WX    TMP DP  RH WIND       PRES   REMARKS
BRADFORD       MOSUNNY   70  55  59 W12G18    29.86R
DUBOIS         SUNNY     71  55  56 W12G23    29.87R
CLEARFIELD     MOSUNNY   74  58  57 W12G22    29.87R
JOHNSTOWN      MOSUNNY   69  57  65 W12G18    29.92R
ALTOONA        MOSUNNY   73  61  65 W9        29.90R
STATE COLLEGE  MOSUNNY   73  61  64 W10       29.85R
WILLIAMSPORT   MOSUNNY   78  56  46 W8        29.77R
SELINSGROVE    SUNNY     78  60  53 VRB7      29.80R
FT INDIANTOWN  MOSUNNY   78  59  51 NW9G21    29.79R
CAPITAL CITY   MOSUNNY   80  58  46 W12       29.81R
HARRISBURG     MOSUNNY   81  62  52 NW13G21   29.80R
YORK           SUNNY     79  60  52 NW16G26   29.82R
$$

PAZ038>040-043-044-047-048-054-055-060>062-067>071-241600-
EASTERN PENNSYLVANIA

CITY           SKY/WX    TMP DP  RH WIND       PRES   REMARKS
SCRANTON       SUNNY     75  57  53 NW12      29.77R
MOUNT POCONO   SUNNY     70  56  61 NW12G25   29.79R
ALLENTOWN      SUNNY     78  57  48 NW13G18   29.75R
QUAKERTOWN*    MOSUNNY   77  59  53 NW6       29.76R
READING        SUNNY     81  65  58 NW14      29.76R
LANCASTER      MOSUNNY   80  64  58 NW15G25   29.79R
COATESVILLE    MOSUNNY   77  68  73 NW16      29.81R
POTTSTOWN      MOSUNNY   79  67  66 W8G20     29.77R
BLUE BELL      MOSUNNY   79  70  73 W12G17    29.76R
DOYLESTOWN     PTSUNNY   77  68  73 NW13G20   29.73R
WILLOW GROVE   NOT AVBL
NORTH PHILA    MOSUNNY   83  70  64 NW18      29.74R
PHILADELPHIA   PTSUNNY   82  66  58 NW18G28   29.75R
$$




USA.gov is the U.S. government's official web portal to all federal, state and local government web resources and services.